Weather History for Boothville, LA

Change the Weather History Date:

Friday, May 10, 2013

  Actual Average Record
Temperature  
Mean Temperature 68 °F -  
Max Temperature 72 °F - - ()
Min Temperature 64 °F - - ()
Cooling Degree Days 3    
Growing Degree Days 18 (Base 50)    
Moisture  
Dew Point 66 °F    
Average Humidity 94    
Maximum Humidity 100    
Minimum Humidity 87    
Precipitation  
Precipitation 1.63 in - - ()
Sea Level Pressure  
Sea Level Pressure 30.03 in    
Wind  
Wind Speed 7 mph (East)    
Max Wind Speed 23 mph    
Max Gust Speed 32 mph    
Visibility 10 miles    
Events Rain    
T = Trace of Precipitation, MM = Missing Value Source: NWS Daily Summary

Daily Weather History Graph

Daily Weather History Graph

Search for Another Location

Airport:

Trip Planner

Search our weather history database for the weather conditions in past years. The results will help you decide how hot, cold, wet, or windy it might be!

Date:

Astronomy

May. 10, 2013 Rise Set
Actual Time 6:08 AM CDT 7:39 PM CDT
Civil Twilight 5:42 AM CDT 8:05 PM CDT
Nautical Twilight 5:12 AM CDT 8:36 PM CDT
Astronomical Twilight 4:40 AM CDT 9:08 PM CDT
Moon 6:33 AM CDT (5/10) 8:27 PM CDT (5/10)
Length of Visible Light 14h 22m
Length of Day
13h 31m
New Moon, 0% of the Moon is Illuminated
May 10
New Moon
May 17
First Quarter
May 24
Full
May 31
Last Quarter
Jun 8
New

Hourly Weather History & Observations

Time (CDT) Temp. Dew Point Humidity Pressure Visibility Wind Dir Wind Speed Gust Speed Precip Events Conditions
12:51 AM 70.0 °F 69.1 °F 97% 30.04 in 10.0 mi SE 8.1 mph - N/A   Clear
1:51 AM 71.1 °F 69.1 °F 93% 30.02 in 10.0 mi SE 8.1 mph - N/A   Clear
2:51 AM 71.1 °F 69.1 °F 93% 30.01 in 10.0 mi SE 5.8 mph - N/A   Clear
3:09 AM 71.6 °F 69.8 °F 94% 29.99 in 10.0 mi SE 4.6 mph - N/A   Mostly Cloudy
3:51 AM 70.0 °F 68.0 °F 93% 29.97 in 10.0 mi ESE 9.2 mph - N/A   Mostly Cloudy
3:58 AM 69.8 °F 68.0 °F 94% 29.98 in 10.0 mi ESE 5.8 mph - N/A   Scattered Clouds
4:21 AM 69.8 °F 69.8 °F 100% 29.99 in 10.0 mi SE 6.9 mph - N/A   Mostly Cloudy
4:51 AM 70.0 °F 68.0 °F 93% 30.00 in 10.0 mi Calm Calm - N/A   Mostly Cloudy
5:20 AM 71.6 °F 69.8 °F 94% 30.00 in 10.0 mi ESE 5.8 mph - N/A   Scattered Clouds
5:51 AM 69.1 °F 66.9 °F 93% 29.97 in 10.0 mi ESE 6.9 mph - N/A   Clear
6:51 AM 69.1 °F 68.0 °F 96% 29.96 in 10.0 mi ESE 6.9 mph - N/A   Clear
7:51 AM 71.1 °F 68.0 °F 90% 30.03 in 10.0 mi Calm Calm - N/A   Clear
8:51 AM 72.0 °F 69.1 °F 91% 30.07 in 10.0 mi South 4.6 mph - N/A   Mostly Cloudy
9:06 AM 66.2 °F 64.4 °F 94% 30.12 in 8.0 mi NW 23.0 mph 32.2 mph 0.04 in Rain Heavy Rain
9:16 AM 64.4 °F 64.4 °F 100% 30.14 in 5.0 mi NW 16.1 mph 31.1 mph 0.25 in Rain Heavy Rain
9:38 AM 64.4 °F 64.4 °F 100% 30.13 in 10.0 mi North 6.9 mph - 0.60 in Rain Rain
9:51 AM 64.9 °F 64.0 °F 97% 30.13 in 10.0 mi North 6.9 mph - 0.66 in Rain Rain
10:51 AM 66.0 °F 64.9 °F 96% 30.13 in 10.0 mi NNE 11.5 mph 17.3 mph 0.14 in Rain Light Rain
11:51 AM 66.0 °F 64.0 °F 93% 30.09 in 10.0 mi East 9.2 mph - 0.24 in Rain Rain
12:51 PM 66.0 °F 64.0 °F 93% 30.07 in 10.0 mi East 5.8 mph - 0.18 in Rain Heavy Rain
1:51 PM 66.9 °F 64.9 °F 93% 30.04 in 10.0 mi East 6.9 mph - 0.05 in Rain Light Rain
2:51 PM 68.0 °F 64.0 °F 87% 30.04 in 10.0 mi NNW 4.6 mph - 0.00 in   Mostly Cloudy
3:51 PM 68.0 °F 64.0 °F 87% 29.99 in 10.0 mi ESE 3.5 mph - 0.01 in   Overcast
4:51 PM 69.1 °F 66.0 °F 90% 29.99 in 10.0 mi Calm Calm - N/A   Overcast
5:51 PM 68.0 °F 66.0 °F 93% 30.05 in 10.0 mi WNW 11.5 mph 23.0 mph 0.00 in Rain Light Rain
6:51 PM 66.0 °F 64.9 °F 96% 30.09 in 10.0 mi NW 11.5 mph 21.9 mph 0.14 in Rain Rain
7:51 PM 64.9 °F 64.0 °F 97% 30.01 in 10.0 mi ESE 11.5 mph - 0.17 in Rain Rain
8:51 PM 66.0 °F 63.0 °F 90% 29.96 in 10.0 mi ESE 9.2 mph - 0.04 in   Clear
9:51 PM 66.0 °F 63.0 °F 90% 29.96 in 10.0 mi SE 4.6 mph - N/A   Clear
10:51 PM 64.0 °F 62.1 °F 93% 29.99 in 10.0 mi Calm Calm - N/A   Clear
11:51 PM 64.0 °F 63.0 °F 96% 29.99 in 10.0 mi Calm Calm - N/A   Clear